sat.trackr.live / text

‹ back to catalog

BEIDOU-3S M1S (C57)

NORAD 40749 · 2015-037B

PAYLOAD INACTIVE UNKNOWN

§ Identity

Operator
Country
PRC
Launch date
2015-07-25
Launch site
XICLF
Launch vehicle
Mass (kg)
RCS (m²)
21.54

Purposes: nav

External: N2YO · Heavens-Above · Gunter

§ Orbital elements

Epoch: 2026-05-23T20:01:01.794720Z

Period
773.13 min
Inclination
54.8897°
Eccentricity
0.0003923
Mean motion
1.86254827 rev/d
Perigee alt
21,514.7 km
Apogee alt
21,536.6 km
Semi-major
27,903.8 km
B*
0.0000e+0
RAAN
302.8719°
Arg perigee
58.3159°
Mean anomaly
301.7019°
Rev number
7,367

§ Raw data

BEIDOU-3S M1S (C57)1 40749U 15037B   26143.83404855 -.00000077  00000+0  00000+0 0  99962 40749  54.8897 302.8719 0003923  58.3159 301.7019  1.86254827 73672

JSON: /api/v1/satellites/40749 · /tle

For live sub-satellite position, see the globe view (requires WebGL).

§ Visibility from observer

Set your observer location to see the next 7 days of passes ≥ 10°. The values pass through the URL so the page stays shareable.

No JS? Fill the form by hand. The geolocation button needs JavaScript.